Voltar ao catálogo

STARLINK-31757

AtivoComunicaçõesVLEO
NORAD 59427·PAYLOAD·🇺🇸 United States

Lançado Apr 7, 2024 de Vandenberg Space Force Base

Loading…

Próximas Passagens (próximas 24 horas)

TLE

AtualizadoSource: CelesTrak SupGP

Época: Sep 15, 2026, 02:17 UTC

1 59427C 24065G   26258.09562500  .00035091  00000+0  10368-2 0  2589
2 59427  53.1567 118.7053 0001242  80.7951 278.4092 15.34373520    16

Acompanhe STARLINK-31757 em tempo real com AllMySat

Download on the App Store